DAUHDAOO

Guest
Details From DAUH - OUED IRARA
To DAOO - ES SENIA
Flight Number -
Tags generated
Created
Modified
Stats Distance 454 nm / 842 km
Max Altitude 35,000 ft / 10,668 m
Waypoints 6
Social Downloads 1
Likes 0
Share VATSIM

Download

Looking for another format? Having issues loading an existing format? Contact us
Advertisement - Login to hide

Notes

Basic altitude profile: - Ascent Rate: 2500ft/min - Ascent Speed: 250kts - Cruise Altitude: 35000ft - Cruise Speed: 420kts - Descent Rate: 1500ft/min - Descent Speed: 250kts Options: - Use NATs: yes - Use PACOTS: yes - Use low airways: yes - Use high airways: yes

Route

DAUH TGU J4 TRB DAOO

ID Type Via Altitude (ft/m) Position (lat/lon) Dist (leg/tot) Name
O DAUH APT - 0 / 0 31.67290 / 6.14046 - / 0 nm OUED IRARA
TGU VOR - 29,700 / 9,053 33.05694 / 6.08861 83 / 83 nm TOUGGOURT VOR-DME
BEREK FIX J4 (AWY-LO) 35,000 / 10,668 33.63333 / 5.00000 64 / 147 nm
KAHIL FIX J4 (AWY-LO) 35,000 / 10,668 34.08333 / 4.11667 51 / 199 nm
TRB VOR J4 (AWY-LO) 22,600 / 6,888 35.34778 / 1.51500 149 / 348 nm TIARET VOR-DME
O DAOO APT - 0 / 0 35.62386 / -0.62118 105 / 454 nm ES SENIA

Altitude Profile

Advertisement - Login to hide

Weather


0- 5 10 15 20 25 30 35+ Temperature / °C

Clouds and Precipitation
Forecast for 2019-01-22 12:00 UTC. Updated 5 hours ago

Ground ~20,000 ft ~40,000 ft Winds

DAUH

Details ICAO DAUH (HME)
Name OUED IRARA
Region Algeria
Timezone Africa/Algiers (UTC+1.0)
Stats Elevation 463 ft / 141 m (AMSL)
Location 31.672900° 6.140460°
Runways 1
Magnetic Variation 1.520° E

METAR

DAUH 221430Z 26009KT 9999 FEW033 14/05 Q1012

Decode

TAF

TAF DAUH 221100Z 2212/2312 32012KT 9999 SCT033 SCT100 PROB30 TEMPO 2212/2216 5000 -RA FEW030CB BECMG 2214/2217 24010KT TEMPO 2220/2224 30010KT PROB40 TEMPO 2308/2312 26015G30KT 4000 DRSA

Decode

Departure Runways

ID Width Length Bearing (true/mag) Surface Threshold Overrun Markings Lighting
18 148 ft / 45 m 9,952 ft / 3,034 m 184.21° / 182.69° ASPHALT 0 ft / 0 m 328 ft / 100 m APP EDGE THRESHOLD
36 148 ft / 45 m 9,952 ft / 3,034 m 4.20° / 2.68° ASPHALT 0 ft / 0 m 328 ft / 100 m APP EDGE THRESHOLD

DAOO

Details ICAO DAOO (ORN)
Name ES SENIA
Region Algeria
Timezone Africa/Algiers (UTC+1.0)
Stats Elevation 295 ft / 90 m (AMSL)
Location 35.623900° -0.621185°
Runways 1
Magnetic Variation 0.268° E

METAR

DAOO 221430Z 28016KT 9999 FEW020TCU SCT020 BKN230 14/05 Q1015

Decode

TAF

TAF DAOO 221100Z 2212/2312 26018KT 9999 FEW020 SCT100 BECMG 2215/2218 SCT026 BKN100 BECMG 2220/2223 SCT020 BKN026 SCT030TCU TEMPO 2221/2308 28030KT 5000 RA PROB40 TEMPO 2300/2306 2000 -TSSHRA SCT026CB

Decode

Destination Runways

ID Width Length Bearing (true/mag) Surface Threshold Overrun Markings Lighting
07 148 ft / 45 m 10,006 ft / 3,050 m 67.06° / 66.79° ASPHALT 0 ft / 0 m 328 ft / 100 m APP CENTERLINE EDGE THRESHOLD SSALR TDZ
25 148 ft / 45 m 10,006 ft / 3,050 m 247.08° / 246.81° ASPHALT 196 ft / 60 m 0 ft / 0 m APP CENTERLINE EDGE THRESHOLD ALSF-II

Popular Alternatives